This demonstration page uses our WeatherBlox Daily Observations layout. Learn more.

38.89511, -77.03637

Hourly Observations for September 11, 2019

Temp ( °F °C ) Dew Point ( °F °C ) Humidity (%) Winds ( mph kmh ) Pressure ( in mb ) Visibility ( mi km ) Precip ( " mm )
12:52 am 00:52 Mostly Cloudy 73 22.8 67 19.4 81 81 SSW 10 17 30.27 1025 10 16.09344 0 0
1:52 am 01:52 Mostly Cloudy 72 22.2 67 19.4 84 84 SSW 8 13 30.27 1025 10 16.09344 0 0
2:52 am 02:52 Partly Cloudy 71 21.7 67 19.4 87 87 S 8 13 30.24 1024 10 16.09344 0 0
3:52 am 03:52 Mostly Cloudy 71 21.7 68 20 90 90 S 10 17 30.24 1024 10 16.09344 0 0
4:33 am 04:33 Mostly Cloudy 71 21.7 68 20 90 90 S 10 17 30.24 1024 10 16.09344 0 0
4:52 am 04:52 Mostly Cloudy 71 21.7 68 20 90 90 S 12 19 30.21 1023 10 16.09344 0 0
5:52 am 05:52 Mostly Cloudy 71 21.7 68 20 90 90 SSW 10 17 30.21 1023 10 16.09344 0 0
6:16 am 06:16 Mostly Cloudy 71 21.7 68 20 90 90 SSW 10 17 30.24 1024 10 16.09344 0 0
6:52 am 06:52 Mostly Cloudy 71 21.7 68 20 90 90 S 10 17 30.21 1023 10 16.09344 0 0
7:52 am 07:52 Cloudy 72 22.2 69 20.6 91 91 S 8 13 30.24 1024 10 16.09344 0 0
8:52 am 08:52 Cloudy 74 23.3 69 20.6 85 85 SSW 10 17 30.24 1024 10 16.09344 0 0
9:08 am 09:08 Cloudy 75 23.9 69 20.6 82 82 SSW 10 17 30.24 1024 10 16.09344 0 0
9:21 am 09:21 Mostly Cloudy 77 25 70 21.1 79 79 SSW 8 13 30.24 1024 10 16.09344 0 0
9:52 am 09:52 Mostly Cloudy 79 26.1 70 21.1 74 74 S 8 13 30.21 1023 10 16.09344 0 0
10:52 am 10:52 Partly Cloudy 82 27.8 71 21.7 69 69 SSE 9 15 30.21 1023 10 16.09344 0 0
11:52 am 11:52 Partly Cloudy 85 29.4 71 21.7 63 63 S 8 13 30.18 1022 10 16.09344 0 0
12:52 pm 12:52 Partly Cloudy 87 30.6 72 22.2 61 61 S 10 17 30.15 1021 10 16.09344 0 0
1:52 pm 13:52 Partly Cloudy 90 32.2 73 22.8 58 58 S 13 20 30.12 1020 10 16.09344 0 0
2:52 pm 14:52 Partly Cloudy 92 33.3 72 22.2 52 52 S 12 19 30.09 1019 10 16.09344 0 0
3:52 pm 15:52 Partly Cloudy 93 33.9 71 21.7 49 49 S 10 17 30.06 1018 10 16.09344 0 0
4:52 pm 16:52 Mostly Cloudy 90 32.2 67 19.4 47 47 S 9 15 30.06 1018 10 16.09344 0 0
5:12 pm 17:12 Mostly Cloudy with Thunderstorms 90 32.2 66 18.9 45 45 S 8 13 30.06 1018 10 16.09344 0 0
5:36 pm 17:36 Mostly Cloudy with Thunderstorms 85 29.4 71 21.7 63 63 W 18 30 30.09 1019 6 9.656064 0.001 0.001
5:52 pm 17:52 Mostly Cloudy with Light Thunderstorms 81 27.2 71 21.7 72 72 W 12 19 30.06 1018 10 16.09344 0.01 0.254
5:57 pm 17:57 Mostly Cloudy with Light Rain 81 27.2 71 21.7 72 72 WSW 13 20 30.09 1019 10 16.09344 0.001 0.001
6:52 pm 18:52 Mostly Cloudy 79 26.1 71 21.7 77 77 SSW 10 17 30.06 1018 10 16.09344 0.001 0.001
7:52 pm 19:52 Mostly Cloudy 78 25.6 71 21.7 79 79 SSW 8 13 30.06 1018 10 16.09344 0 0
8:52 pm 20:52 Mostly Cloudy 77 25 70 21.1 79 79 SSW 5 7 30.09 1019 10 16.09344 0 0
9:52 pm 21:52 Mostly Cloudy 77 25 68 20 74 74 S 5 7 30.09 1019 10 16.09344 0 0
10:52 pm 22:52 Mostly Cloudy 76 24.4 69 20.6 79 79 SSW 7 11 30.06 1018 10 16.09344 0 0
11:52 pm 23:52 Mostly Cloudy 75 23.9 69 20.6 82 82 SSW 7 11 30.06 1018 10 16.09344 0 0

Powered by AerisWeather